Weather reports worldwide

Advertisment
Holbeach, United Kingdom (3469): temperature & dewpoint: 22.01.2020 06:00:00 - 28.01.2020 06:00:00 (GMT)Holbeach, United Kingdom (3469): temperature -20cm & temperature -100cm: 22.01.2020 06:00:00 - 28.01.2020 06:00:00 (GMT)Holbeach, United Kingdom (3469): wind speed & gusts: 22.01.2020 06:00:00 - 28.01.2020 06:00:00 (GMT)Holbeach, United Kingdom (3469): wind direction: 22.01.2020 06:00:00 - 28.01.2020 06:00:00 (GMT)Holbeach, United Kingdom (3469): reduced air pressure: 22.01.2020 06:00:00 - 28.01.2020 06:00:00 (GMT)Holbeach, United Kingdom (3469): visibility: 22.01.2020 06:00:00 - 28.01.2020 06:00:00 (GMT)Holbeach, United Kingdom (3469): precipitation: 22.01.2020 06:00:00 - 28.01.2020 06:00:00 (GMT)
Date & Time tt [°C] td [°C] tt -20cm [°C] tt -100cm [°C] ff [km/h] ff [kn] fx [km/h] fx [kn] dd ppp [hPa] vv [km] rr [mm]
28.01.2020 06:00:00 - - - - - - - - - - - -
28.01.2020 05:00:00 4,1 2,8 - - 21 11 - - W 987,1 12 0,0
28.01.2020 04:00:00 4,1 3,4 - - 24 13 - - WSW 986,8 40 0,0
28.01.2020 03:00:00 4,0 3,5 - - 24 13 - - SW 986,7 24 0,0
28.01.2020 02:00:00 3,8 3,6 - - 22 12 - - SSW 987,2 21 0,0
28.01.2020 01:00:00 3,7 3,5 - - 18 10 - - SSW 987,9 10 0,0
28.01.2020 00:00:00 3,5 3,3 - - 18 10 - - SSW 988,8 8 0,0
27.01.2020 23:00:00 3,4 3,1 - - 15 8 - - SSW 989,3 11 0,0
27.01.2020 22:00:00 4,0 3,6 - - 21 11 - - SSW 990,1 16 0,0
27.01.2020 21:00:00 4,7 3,8 - - 21 11 - - SSW 991,0 29 0,0
27.01.2020 20:00:00 5,1 4,1 - - 22 12 - - SSW 991,8 45 0,0
27.01.2020 19:00:00 5,9 5,2 - - 21 11 - - SSW 992,3 50 0,0
27.01.2020 18:00:00 6,5 5,6 - - 13 7 - - S 993,3 35 0,0
27.01.2020 17:00:00 6,5 5,3 - - 13 7 - - SSE 994,4 45 0,0
27.01.2020 16:00:00 7,1 5,4 - - 13 7 - - S 995,4 45 0,0
27.01.2020 15:00:00 7,5 5,6 - - 22 12 - - SSW 996,6 40 0,0
27.01.2020 14:00:00 8,0 5,5 - - 22 12 - - SSW 997,7 35 0,0
27.01.2020 13:00:00 8,3 6,0 - - 26 14 - - SW 998,7 40 0,0
27.01.2020 12:00:00 7,6 6,2 - - 22 12 - - SW 999,5 40 0,0
27.01.2020 11:00:00 7,1 5,5 - - 29 16 - - SSW 1000,3 40 0,0
27.01.2020 10:00:00 6,2 4,9 - - 22 12 - - SSW 1000,3 30 0,0
27.01.2020 09:00:00 5,2 3,9 6,7 7,7 22 12 - - SSW 1000,6 50 0,0
27.01.2020 08:00:00 6,0 4,4 - - 24 13 - - SW 1000,5 45 0,2
27.01.2020 07:00:00 6,3 5,7 - - 24 13 - - SSW 1000,6 35 0,0
27.01.2020 06:00:00 6,1 5,5 - - 26 14 - - SSW 1000,9 25 0,0
27.01.2020 05:00:00 6,1 5,4 - - 26 14 - - SSW 1001,1 35 0,0
27.01.2020 04:00:00 6,0 5,4 - - 29 16 - - SSW 1001,7 28 0,0
27.01.2020 03:00:00 5,7 5,3 - - 24 13 - - SSW 1002,1 35 0,0
27.01.2020 02:00:00 5,6 5,2 - - 24 13 - - SSW 1002,5 14 0,0
27.01.2020 01:00:00 6,1 6,0 - - 24 13 - - SSW 1003,0 9 0,0
27.01.2020 00:00:00 6,0 6,0 - - 15 8 - - SSW 1003,4 5 0,0
26.01.2020 23:00:00 6,4 6,3 - - 15 8 - - SW 1003,5 8 0,0
26.01.2020 22:00:00 7,2 7,1 - - 15 8 - - SW 1003,4 12 0,0
26.01.2020 21:00:00 7,5 7,4 - - 16 9 - - SW 1003,5 35 0,0
26.01.2020 20:00:00 8,0 7,8 - - 21 11 - - SW 1003,4 30 0,0
26.01.2020 19:00:00 8,2 8,1 - - 24 13 46 25 SSW 1003,7 9 1,0
26.01.2020 18:00:00 8,4 8,0 - - 28 15 - - SSW 1003,7 8 0,6
26.01.2020 17:00:00 8,6 7,7 - - 26 14 - - S 1004,1 16 0,0
26.01.2020 16:00:00 8,6 7,5 - - 28 15 - - S 1004,7 15 0,8
26.01.2020 15:00:00 8,6 7,4 - - 26 14 - - S 1005,4 12 0,4
26.01.2020 14:00:00 9,3 7,1 - - 35 19 52 28 SSW 1006,1 23 0,0
26.01.2020 13:00:00 9,4 7,6 - - 37 20 54 29 SSW 1006,8 21 0,0
26.01.2020 12:00:00 9,0 7,1 - - 35 19 48 26 SSW 1007,3 21 0,0
26.01.2020 11:00:00 8,3 6,7 - - 31 17 - - SSW 1008,3 14 0,0
26.01.2020 10:00:00 7,3 6,4 - - 28 15 - - S 1008,9 13 0,0
26.01.2020 09:00:00 6,3 5,7 6,7 7,7 26 14 - - SSW 1009,6 8 0,0
26.01.2020 08:00:00 6,3 5,8 - - 26 14 - - SSW 1009,8 8 0,0
26.01.2020 07:00:00 5,4 5,2 - - 22 12 - - SSW 1010,0 5 0,0
26.01.2020 06:00:00 5,3 5,2 - - 22 12 - - SSW 1010,2 3,2 0,0
26.01.2020 05:00:00 5,3 5,1 - - 16 9 - - S 1010,3 3,0 0,0
26.01.2020 04:00:00 5,4 5,3 - - 15 8 - - S 1010,6 3,8 0,0
26.01.2020 03:00:00 5,4 5,4 - - 15 8 - - S 1011,9 3,7 0,0
26.01.2020 02:00:00 5,0 5,0 - - 16 9 - - S 1012,4 3,6 0,0
26.01.2020 01:00:00 4,5 4,4 - - 24 13 - - S 1013,2 2,6 0,0
26.01.2020 00:00:00 4,5 4,2 - - 28 15 - - S 1013,7 3,9 0,0
25.01.2020 23:00:00 4,8 4,5 - - 22 12 - - S 1013,9 3,9 0,0
25.01.2020 22:00:00 4,9 4,5 - - 22 12 - - S 1014,5 3,3 0,0
25.01.2020 21:00:00 5,5 4,7 - - 16 9 - - S 1015,0 5 0,0
25.01.2020 20:00:00 5,8 5,1 - - 16 9 - - S 1015,4 5 0,0
25.01.2020 19:00:00 5,8 5,2 - - 15 8 - - S 1015,6 4,9 0,0
25.01.2020 18:00:00 6,0 5,1 - - 16 9 - - S 1015,8 5 0,0
25.01.2020 17:00:00 6,0 4,9 - - 15 8 - - S 1016,0 7 0,0
25.01.2020 16:00:00 6,3 4,6 - - 13 7 - - S 1016,0 10 0,0
25.01.2020 15:00:00 6,6 4,7 - - 21 11 - - SSW 1016,4 15 0,0
25.01.2020 14:00:00 6,4 4,8 - - 21 11 - - SSW 1017,1 10 0,0
25.01.2020 13:00:00 6,3 4,6 - - 21 11 - - SW 1017,7 14 0,0
25.01.2020 12:00:00 6,2 4,2 - - 16 9 - - SW 1018,3 30 0,0
25.01.2020 11:00:00 6,1 3,7 - - 26 14 - - SW 1018,8 25 0,0
25.01.2020 10:00:00 6,0 4,0 - - 18 10 - - SW 1018,7 50 0,0
25.01.2020 09:00:00 5,9 4,3 6,7 7,7 16 9 - - SW 1018,5 50 0,0
25.01.2020 08:00:00 5,9 4,1 - - 15 8 - - SW 1018,4 35 0,0
25.01.2020 07:00:00 6,0 4,3 - - 18 10 - - SW 1018,3 40 0,0
25.01.2020 06:00:00 6,1 4,2 - - 24 13 - - SW 1018,2 40 0,0
25.01.2020 05:00:00 5,9 5,4 - - 16 9 - - SW 1018,3 7 0,0
25.01.2020 04:00:00 5,9 5,6 - - 15 8 - - SW 1018,6 5 0,0
25.01.2020 03:00:00 6,0 5,8 - - 15 8 - - SW 1018,9 3,7 0,0
25.01.2020 02:00:00 6,1 5,9 - - 13 7 - - SW 1019,3 3,6 0,0
25.01.2020 01:00:00 6,2 6,0 - - 11 6 - - SW 1019,6 3,9 0,0
25.01.2020 00:00:00 6,3 6,1 - - 13 7 - - SW 1020,0 4,3 0,0
24.01.2020 23:00:00 6,4 6,1 - - 9 5 - - SSW 1020,3 3,9 0,0
24.01.2020 22:00:00 6,5 6,2 - - 11 6 - - SSW 1020,4 5 0,0
24.01.2020 21:00:00 6,7 6,3 - - 11 6 - - SSW 1020,6 5 0,0
24.01.2020 20:00:00 6,8 6,3 - - 11 6 - - SW 1020,9 6 0,0
24.01.2020 19:00:00 6,7 6,5 - - 11 6 - - SSW 1020,8 6 0,0
24.01.2020 18:00:00 6,6 6,4 - - 5 3 - - SW 1020,7 4,8 0,0
24.01.2020 17:00:00 6,7 6,4 - - 8 4 - - SW 1020,3 4,8 0,0
24.01.2020 16:00:00 7,7 7,1 - - 11 6 - - WSW 1020,4 6 0,0
24.01.2020 15:00:00 7,9 7,2 - - 11 6 - - WSW 1020,6 6 0,0
24.01.2020 14:00:00 7,9 7,1 - - 13 7 - - WSW 1020,9 7 0,0
24.01.2020 13:00:00 8,0 7,1 - - 13 7 - - WSW 1021,3 8 0,0
24.01.2020 12:00:00 7,6 6,8 - - 13 7 - - WSW 1022,0 8 0,0
24.01.2020 11:00:00 7,2 6,7 - - 11 6 - - WSW 1022,5 10 0,0
24.01.2020 10:00:00 6,5 6,2 - - 8 4 - - WSW 1022,6 8 0,0
24.01.2020 09:00:00 6,2 6,1 6,4 7,7 11 6 - - WSW 1022,6 5 0,0
24.01.2020 08:00:00 6,0 6,0 - - 13 7 - - WSW 1022,3 3,3 0,0
24.01.2020 07:00:00 6,0 6,0 - - 15 8 - - SW 1022,1 3,0 0,0
24.01.2020 06:00:00 5,9 5,9 - - 11 6 - - SW 1022,5 2,2 0,0
24.01.2020 05:00:00 5,8 5,8 - - 13 7 - - SW 1022,8 2,2 0,0
24.01.2020 04:00:00 5,8 5,8 - - 11 6 - - WSW 1023,2 2,9 0,0
24.01.2020 03:00:00 5,9 5,9 - - 15 8 - - SW 1023,8 2,5 0,0
24.01.2020 02:00:00 6,0 6,0 - - 11 6 - - SSW 1024,4 2,7 0,0
24.01.2020 01:00:00 6,0 6,0 - - 11 6 - - SW 1025,2 1,8 0,0
24.01.2020 00:00:00 6,1 6,1 - - 5 3 - - W 1025,8 1,5 0,0
23.01.2020 23:00:00 6,1 6,1 - - 8 4 - - NW 1026,0 2,3 0,0
23.01.2020 22:00:00 6,1 6,1 - - 4 2 - - WNW 1026,3 1,5 0,0
23.01.2020 21:00:00 6,1 6,0 - - 8 4 - - WNW 1026,8 2,3 0,0
23.01.2020 20:00:00 6,5 6,2 - - 5 3 - - W 1027,3 5 0,0
23.01.2020 19:00:00 6,5 6,1 - - 8 4 - - W 1027,4 9 0,0
23.01.2020 18:00:00 6,8 6,2 - - 15 8 - - WSW 1027,8 18 0,0
23.01.2020 17:00:00 6,9 6,6 - - 11 6 - - W 1028,2 17 0,0
23.01.2020 16:00:00 7,1 6,8 - - 13 7 - - WSW 1028,5 12 0,0
23.01.2020 15:00:00 7,3 7,1 - - 15 8 - - WSW 1028,9 11 0,0
23.01.2020 14:00:00 7,4 7,4 - - 13 7 - - WSW 1029,9 9 0,0
23.01.2020 13:00:00 7,4 7,4 - - 13 7 - - SW 1031,0 3,9 0,0
23.01.2020 12:00:00 7,2 7,2 - - 13 7 - - SW 1031,7 3,3 0,0
23.01.2020 11:00:00 7,0 7,0 - - 13 7 - - SW 1032,3 2,4 0,2
23.01.2020 10:00:00 6,8 6,8 - - 11 6 - - SSW 1032,6 2,0 0,0
23.01.2020 09:00:00 6,3 6,3 5,9 7,7 11 6 - - SW 1033,0 3,3 0,0
23.01.2020 08:00:00 6,1 6,1 - - 11 6 - - SW 1033,1 3,6 0,0
23.01.2020 07:00:00 5,6 5,6 - - 9 5 - - SW 1033,3 1,8 0,0
23.01.2020 06:00:00 5,2 5,2 - - 11 6 - - SSW 1033,6 0,3 0,0
23.01.2020 05:00:00 5,7 5,7 - - 8 4 - - S 1033,8 0,5 0,0
23.01.2020 04:00:00 6,1 6,1 - - 5 3 - - WSW 1034,2 1,1 0,0
23.01.2020 03:00:00 6,2 6,2 - - 8 4 - - SW 1034,8 0,6 0,0
23.01.2020 02:00:00 6,1 6,1 - - 8 4 - - SSW 1035,4 0,3 0,0
23.01.2020 01:00:00 6,1 6,1 - - 8 4 - - SSW 1035,8 0,3 0,0
23.01.2020 00:00:00 6,3 6,3 - - 9 5 - - S 1036,2 0,8 0,0
22.01.2020 23:00:00 6,0 6,0 - - 8 4 - - S 1036,5 1,5 0,0
22.01.2020 22:00:00 5,1 5,1 - - 9 5 - - SSW 1036,4 0,4 0,0
22.01.2020 21:00:00 4,0 4,0 - - 8 4 - - SSW 1036,4 0,1 0,0
22.01.2020 20:00:00 4,8 4,8 - - 9 5 - - SSW 1036,5 0,1 0,0
22.01.2020 19:00:00 6,0 5,9 - - 5 3 - - S 1036,7 0,8 0,0
22.01.2020 18:00:00 6,8 6,6 - - 8 4 - - SW 1036,7 2,2 0,0
22.01.2020 17:00:00 7,4 7,2 - - 5 3 - - SW 1036,6 3,0 0,0
22.01.2020 16:00:00 8,0 7,7 - - 4 2 - - WSW 1036,7 5 0,0
22.01.2020 15:00:00 7,8 7,6 - - 8 4 - - WSW 1036,5 4,7 0,0
22.01.2020 14:00:00 7,4 7,4 - - 8 4 - - W 1036,8 5 0,0
22.01.2020 13:00:00 6,9 6,9 - - 5 3 - - W 1037,4 5 0,0
22.01.2020 12:00:00 6,1 6,1 - - 8 4 - - W 1037,8 4,1 0,0
22.01.2020 11:00:00 5,5 5,5 - - 5 3 - - WNW 1037,9 4,6 0,0
22.01.2020 10:00:00 4,7 4,7 - - 8 4 - - W 1037,8 2,6 0,0
22.01.2020 09:00:00 4,2 4,2 5,2 7,9 9 5 - - WNW 1037,7 2,6 0,0
22.01.2020 08:00:00 4,7 4,7 - - 8 4 - - NW 1037,3 0,8 0,0
22.01.2020 07:00:00 4,8 4,8 - - 8 4 - - WNW 1036,8 0,4 0,0
22.01.2020 06:00:00 4,5 4,5 - - 8 4 - - W 1036,8 1,6 0,0

tt = temperature
td = dewpoint
tt -20cm = temperature -20cm
tt -100cm = temperature -100cm
ff = wind speed
fx = gusts
dd = wind direction
ppp = reduced air pressure
vv = visibility
rr = precipitation

Next stations